[[{"header":{"parameterUnit":"m.s-1","parameterCategory":1,"la1":30.2991,"la2":30.254,"lo1":-89.0895,"lo2":-89.0444,"dy":0.0017,"dx":0.0017,"nx":28,"ny":28,"refTime":"2023-11-08T03:00:00:Z","depth":0,"parameterNumber":2,"parameterNumberName":"U-component_of_WINDS"},"data":[0,0,0,0,0,0,0,0,0,0,0,0,0,0,0,0,0,0,0,0,0,0,0,0,0,0,0,0,0,0,0,0,0,0,0,0,0,0,0,0,0,0,0,0,0,0,0,0,0,0,0,0,0,0,0,0,0,0,-0.1675,-0.1675,0,-0.1658,-0.1658,-0.1657,-0.1625,-0.1624,-0.1623,-0.1623,-0.1607,-0.1607,-0.1607,0,0,0,0,0,0,0,0,0,0,0,0,0,-0.1679,-0.1679,-0.1675,-0.1675,-0.1674,-0.1658,-0.1658,-0.1657,-0.1625,-0.1624,-0.1623,-0.1623,-0.1606,-0.1607,-0.1607,0,0,0,0,0,0,0,0,0,0,0,0,0,-0.1671,-0.1679,-0.1675,-0.1656,-0.1654,-0.1658,-0.1658,-0.1657,-0.1625,-0.1624,-0.1623,-0.1622,-0.1606,-0.1607,-0.1607,-0.1628,0,0,-0.1608,-0.1608,0,0,0,0,0,0,0,0,-0.1671,-0.1671,-0.1659,-0.1657,-0.1655,-0.1642,-0.1653,-0.1647,-0.1625,-0.1636,-0.1623,-0.1622,-0.1619,-0.1618,-0.1617,-0.1627,-0.1626,-0.1608,-0.1608,-0.1608,-0.1608,0,0,0,0,0,0,0,-0.1672,-0.1671,-0.1668,-0.1659,-0.1657,-0.1648,-0.1646,-0.1652,-0.1633,-0.1635,-0.1633,-0.1631,-0.1618,-0.1617,-0.1617,-0.1626,-0.1608,-0.1608,-0.1608,-0.1608,-0.1649,-0.165,0,0,0,0,0,0,-0.1675,-0.1672,-0.1669,-0.1668,-0.1661,-0.1649,-0.1647,-0.1648,-0.1633,-0.163,-0.1632,-0.163,-0.1617,-0.1616,-0.1616,-0.1637,-0.1608,-0.1608,-0.1608,-0.1648,-0.1649,-0.165,0,0,0,0,0,0,-0.1675,-0.1675,-0.1669,-0.1669,-0.1668,-0.165,-0.1651,-0.1648,-0.1647,-0.1631,-0.1627,-0.1634,-0.1616,-0.1616,-0.1624,-0.1636,-0.1608,-0.1608,-0.1647,-0.1649,-0.165,-0.1682,0,0,0,0,0,0,-0.1676,-0.1675,-0.1683,-0.1669,-0.1668,-0.1678,-0.1652,-0.1648,-0.1647,-0.1644,-0.1632,-0.1629,-0.1616,-0.1624,-0.1625,-0.1636,-0.1609,-0.1646,-0.1648,-0.1649,-0.168,-0.1684,-0.1688,0,0,0,0,0,-0.1676,-0.1694,-0.1684,-0.1684,-0.1677,-0.1679,-0.1678,-0.1662,-0.1648,-0.1656,-0.1645,-0.163,-0.1635,-0.1625,-0.1626,-0.1638,-0.1645,-0.1647,-0.1649,-0.1678,-0.1683,-0.1688,0,0,0,0,0,0,-0.171,-0.1692,-0.1681,-0.1694,-0.1688,-0.1673,-0.1682,-0.1668,-0.1666,-0.1663,-0.1643,-0.1641,-0.1652,-0.1646,-0.1635,-0.1656,-0.1638,-0.164,-0.1659,-0.1664,-0.1668,-0.1669,-0.1609,0,0,0,0,0,-0.1719,-0.1722,-0.1706,-0.172,-0.1717,-0.17,-0.17,-0.1688,-0.1681,-0.1679,-0.1669,-0.1663,-0.1663,-0.1664,-0.1663,-0.1679,-0.1675,-0.1687,-0.1691,-0.1695,-0.1697,-0.1703,-0.1707,-0.1657,-0.1657,-0.1657,0,0,-0.1738,-0.1729,-0.1732,-0.1726,-0.172,-0.1723,-0.1698,-0.1703,-0.1704,-0.1679,-0.1686,-0.1679,-0.1671,-0.1682,-0.1687,-0.1678,-0.171,-0.1698,-0.1701,-0.17,-0.1705,-0.171,-0.1714,-0.1659,-0.1659,-0.1658,0,0,-0.1774,-0.1768,-0.1777,-0.1771,-0.1762,-0.175,-0.1753,-0.1739,-0.1733,-0.174,-0.172,-0.1722,-0.1723,-0.1718,-0.1715,-0.1747,-0.1732,-0.1747,-0.1769,-0.1775,-0.1779,-0.1782,-0.1792,-0.1796,-0.1749,-0.175,-0.175,0,-0.1799,-0.1802,-0.1784,-0.1789,-0.1786,-0.1763,-0.1772,-0.1768,-0.1759,-0.1757,-0.1747,-0.1747,-0.174,-0.1749,-0.1756,-0.1756,-0.1757,-0.1748,-0.178,-0.1783,-0.1786,-0.1795,-0.1798,-0.1751,-0.1751,-0.1751,-0.1751,0,-0.1832,-0.1834,-0.1843,-0.1834,-0.1833,-0.184,-0.1823,-0.1824,-0.1811,-0.1801,-0.1807,-0.1798,-0.1794,-0.1795,-0.1784,-0.1802,-0.1796,-0.1783,-0.1764,-0.1793,-0.18,-0.1804,-0.1754,-0.1753,-0.1753,-0.1752,0,0,-0.1889,-0.1868,-0.1872,-0.1866,-0.1854,-0.1855,-0.1861,-0.1857,-0.1857,-0.1852,-0.1855,-0.1856,-0.1843,-0.184,-0.1828,-0.1833,-0.1856,-0.1819,-0.1818,-0.1824,-0.1874,-0.1882,-0.1887,-0.1847,-0.1847,-0.1848,-0.1874,0,-0.192,-0.1928,-0.1911,-0.1923,-0.1924,-0.1902,-0.1906,-0.1899,-0.1889,-0.1888,-0.1878,-0.1878,-0.1862,-0.1859,-0.1864,-0.1853,-0.1866,-0.1851,-0.1849,-0.1849,-0.185,-0.1891,-0.1901,-0.1926,-0.1877,-0.1877,-0.1878,0,-0.1958,-0.1953,-0.1965,-0.1949,-0.1949,-0.1954,-0.1947,-0.1947,-0.1938,-0.193,-0.1926,-0.1911,-0.1915,-0.1898,-0.1902,-0.1892,-0.189,-0.1885,-0.1885,-0.1883,-0.1864,-0.1889,-0.1933,-0.1936,-0.1883,-0.1882,-0.1882,0,-0.1996,-0.1992,-0.1998,-0.1995,-0.1978,-0.1981,-0.1974,-0.1964,-0.1961,-0.1956,-0.1954,-0.195,-0.1947,-0.1944,-0.1927,-0.1917,-0.1933,-0.1915,-0.1926,-0.1926,-0.1929,-0.1929,-0.1973,-0.1931,-0.1931,-0.1931,-0.1931,0,-0.2032,-0.2039,-0.2015,-0.2018,-0.2025,-0.2006,-0.2014,-0.2005,-0.1995,-0.1996,-0.1977,-0.1978,-0.1958,-0.1957,-0.1945,-0.1949,-0.1948,-0.1941,-0.1938,-0.1942,-0.1943,-0.194,-0.1937,-0.1932,-0.1932,-0.1931,-0.1931,0,-0.2075,-0.2059,-0.2063,-0.2046,-0.2042,-0.2048,-0.2033,-0.2035,-0.2024,-0.2025,-0.2024,-0.2007,-0.2004,-0.1988,-0.1982,-0.1974,-0.1982,-0.1976,-0.1985,-0.1982,-0.1993,-0.1992,-0.2035,-0.2039,-0.1997,-0.1997,-0.1997,0,-0.2098,-0.2103,-0.2086,-0.2085,-0.2079,-0.2077,-0.2074,-0.2056,-0.2053,-0.2042,-0.2045,-0.2041,-0.2036,-0.2033,-0.202,-0.2015,-0.2007,-0.2023,-0.2006,-0.201,-0.2005,-0.2004,-0.2004,-0.2026,-0.2026,-0.2027,-0.2027,0,-0.2141,-0.2132,-0.2128,-0.2122,-0.2118,-0.2112,-0.2105,-0.2105,-0.2084,-0.2083,-0.2079,-0.2075,-0.2069,-0.2064,-0.2056,-0.2049,-0.2034,-0.2033,-0.2034,-0.2038,-0.2042,-0.2038,-0.1992,-0.2031,-0.2031,-0.2031,-0.203,-0.203,-0.2173,-0.2176,-0.2164,-0.216,-0.2152,-0.2145,-0.2146,-0.2134,-0.213,-0.2123,-0.2112,-0.2109,-0.2098,-0.2086,-0.208,-0.2078,-0.2069,-0.2073,-0.2073,-0.2074,-0.2075,-0.2044,-0.2077,-0.2077,-0.2076,-0.2076,-0.2076,0,-0.2213,-0.2204,-0.22,-0.219,-0.2187,-0.2173,-0.2163,-0.2161,-0.2159,-0.215,-0.2145,-0.2141,-0.2136,-0.2121,-0.2115,-0.2116,-0.2109,-0.2115,-0.2113,-0.2112,-0.2084,-0.2082,-0.212,-0.212,-0.212,-0.212,-0.212,-0.212,-0.2233,-0.2236,-0.2226,-0.2224,-0.2215,-0.2211,-0.2207,-0.22,-0.2193,-0.2188,-0.2183,-0.2174,-0.2162,-0.2154,-0.2149,-0.2145,-0.2142,-0.215,-0.2144,-0.2118,-0.2114,-0.211,-0.2108,-0.215,-0.215,-0.2171,-0.2171,-0.2171]},{"header":{"parameterUnit":"m.s-1","parameterCategory":1,"la1":30.2991,"la2":30.254,"lo1":-89.0895,"lo2":-89.0444,"dy":0.0017,"dx":0.0017,"nx":28,"ny":28,"refTime":"2023-11-08T03:00:00:Z","depth":0,"parameterNumber":3,"parameterNumberName":"V-component_of_WINDS"},"data":[0,0,0,0,0,0,0,0,0,0,0,0,0,0,0,0,0,0,0,0,0,0,0,0,0,0,0,0,0,0,0,0,0,0,0,0,0,0,0,0,0,0,0,0,0,0,0,0,0,0,0,0,0,0,0,0,0,0,2.6435,2.6435,0,2.6404,2.6404,2.6404,2.645,2.6452,2.6454,2.6455,2.6419,2.6416,2.6414,0,0,0,0,0,0,0,0,0,0,0,0,0,2.6531,2.6529,2.6435,2.6435,2.6434,2.6404,2.6404,2.6404,2.645,2.6452,2.6454,2.6456,2.642,2.6417,2.6414,0,0,0,0,0,0,0,0,0,0,0,0,0,2.6494,2.6528,2.6435,2.6454,2.6455,2.6405,2.6404,2.6404,2.645,2.6452,2.6454,2.6457,2.6421,2.6417,2.6413,2.6341,0,0,2.6402,2.64,0,0,0,0,0,0,0,0,2.6496,2.649,2.6452,2.6453,2.6454,2.6434,2.6425,2.6382,2.6449,2.6452,2.6455,2.6458,2.6421,2.6418,2.6407,2.6339,2.6338,2.6402,2.6399,2.6398,2.6397,0,0,0,0,0,0,0,2.6498,2.6492,2.6423,2.6451,2.6452,2.6463,2.6461,2.6417,2.6423,2.6452,2.6455,2.6451,2.6423,2.641,2.6406,2.6337,2.6402,2.6398,2.6396,2.6395,2.6212,2.621,0,0,0,0,0,0,2.6499,2.6493,2.6424,2.6422,2.6482,2.6459,2.6456,2.6438,2.6424,2.6424,2.6449,2.6453,2.6415,2.641,2.6405,2.6321,2.6398,2.6394,2.6392,2.6215,2.6212,2.6209,0,0,0,0,0,0,2.6501,2.6492,2.6425,2.6459,2.6451,2.6455,2.6434,2.6436,2.6423,2.6422,2.6423,2.6435,2.6417,2.641,2.6358,2.6321,2.6392,2.6389,2.6218,2.6214,2.621,2.6152,0,0,0,0,0,0,2.6503,2.6493,2.6466,2.6458,2.6449,2.6379,2.6431,2.6433,2.6417,2.6423,2.6409,2.6409,2.6418,2.6363,2.6354,2.6317,2.6386,2.6221,2.6216,2.6211,2.6157,2.6147,2.6138,0,0,0,0,0,2.6507,2.6449,2.6464,2.6455,2.6415,2.6376,2.6371,2.6385,2.6414,2.6387,2.6386,2.6409,2.6326,2.6357,2.6347,2.6308,2.6223,2.6217,2.6212,2.6162,2.6149,2.6138,0,0,0,0,0,0,2.645,2.6448,2.6465,2.6403,2.639,2.6384,2.635,2.637,2.6347,2.6353,2.6369,2.6365,2.631,2.6304,2.6338,2.6239,2.628,2.6272,2.6245,2.6233,2.6223,2.6226,2.6383,0,0,0,0,0,2.6431,2.64,2.64,2.6345,2.6338,2.6345,2.6329,2.6341,2.6327,2.6321,2.6316,2.6301,2.6272,2.6252,2.6225,2.6157,2.6155,2.6126,2.6116,2.6108,2.61,2.6066,2.6054,2.619,2.619,2.619,0,0,2.6389,2.6385,2.6364,2.6334,2.6325,2.6293,2.634,2.6303,2.628,2.6315,2.6266,2.6262,2.6246,2.6187,2.616,2.618,2.6063,2.61,2.6094,2.6091,2.6059,2.6046,2.6035,2.6186,2.6186,2.6187,0,0,2.6299,2.6292,2.6247,2.6238,2.6225,2.6231,2.622,2.6212,2.6212,2.6163,2.619,2.6162,2.611,2.6099,2.6086,2.5994,2.6015,2.5985,2.5933,2.5899,2.5889,2.5879,2.5848,2.5836,2.5977,2.5977,2.5977,0,2.6249,2.6202,2.622,2.6183,2.6169,2.6203,2.6157,2.6147,2.6125,2.6115,2.6138,2.6077,2.6068,2.6007,2.5985,2.5973,2.5962,2.5986,2.5889,2.588,2.5871,2.5841,2.5829,2.5974,2.5974,2.5974,2.5975,0,2.6142,2.611,2.6075,2.6056,2.6039,2.5997,2.6009,2.5988,2.6002,2.6006,2.5957,2.5948,2.5921,2.5908,2.5919,2.5849,2.5862,2.5887,2.5928,2.5855,2.5827,2.5815,2.5969,2.597,2.5971,2.5972,0,0,2.6013,2.6007,2.5994,2.5987,2.5976,2.5951,2.5912,2.5888,2.5871,2.5855,2.5822,2.578,2.5804,2.579,2.5801,2.5771,2.5701,2.58,2.58,2.5783,2.5624,2.5606,2.5593,2.5715,2.5713,2.5712,2.5626,0,2.5923,2.5857,2.5874,2.5808,2.5779,2.5812,2.5778,2.5767,2.577,2.5745,2.5747,2.5718,2.5751,2.5743,2.5715,2.5716,2.567,2.5722,2.5685,2.5684,2.5689,2.5578,2.5558,2.5478,2.5615,2.5613,2.5612,0,2.581,2.5793,2.5725,2.5722,2.571,2.568,2.566,2.5636,2.5625,2.5629,2.5615,2.5633,2.5594,2.5636,2.5583,2.5618,2.5604,2.5603,2.56,2.5597,2.5644,2.5573,2.5452,2.5441,2.5595,2.5596,2.5598,0,2.5724,2.5684,2.5639,2.5631,2.5626,2.5604,2.5601,2.5593,2.5578,2.5561,2.5551,2.5528,2.5516,2.5498,2.5509,2.5539,2.5455,2.5497,2.5457,2.5457,2.5437,2.5439,2.5314,2.5427,2.5428,2.5428,2.5428,0,2.5622,2.558,2.56,2.5572,2.5526,2.5546,2.5499,2.5499,2.5492,2.5465,2.5491,2.5464,2.5481,2.5456,2.5464,2.542,2.5414,2.5416,2.5419,2.5414,2.5414,2.5405,2.5411,2.5425,2.5425,2.5426,2.5427,0,2.5518,2.553,2.5484,2.5484,2.5483,2.5449,2.5449,2.5423,2.5429,2.5394,2.5387,2.5395,2.5367,2.5377,2.5346,2.5352,2.5296,2.5306,2.53,2.5303,2.5263,2.5267,2.5128,2.5112,2.5235,2.5234,2.5233,0,2.5453,2.5421,2.542,2.5404,2.54,2.5374,2.5361,2.5379,2.5363,2.535,2.5326,2.5301,2.5282,2.5236,2.5238,2.5215,2.5225,2.5178,2.5222,2.5219,2.5226,2.5228,2.5226,2.517,2.5168,2.5167,2.5166,0,2.5336,2.5345,2.5325,2.5307,2.529,2.5277,2.5265,2.5251,2.5269,2.525,2.5223,2.5208,2.5179,2.5154,2.5134,2.513,2.5151,2.5153,2.5142,2.5137,2.5136,2.5138,2.5278,2.5155,2.5157,2.5157,2.5158,2.5158,2.525,2.5225,2.5221,2.5198,2.5192,2.5181,2.5158,2.5162,2.5141,2.512,2.5132,2.5101,2.5093,2.5069,2.5062,2.5038,2.5056,2.504,2.5037,2.5033,2.5028,2.514,2.5034,2.5034,2.5034,2.5035,2.5035,0,2.5136,2.5136,2.5115,2.51,2.5082,2.5106,2.5095,2.5079,2.5052,2.5044,2.5026,2.4995,2.4972,2.4974,2.4952,2.4933,2.4942,2.4926,2.4928,2.4927,2.5013,2.5024,2.492,2.492,2.492,2.492,2.492,2.492,2.5075,2.5034,2.5042,2.4999,2.4999,2.497,2.4962,2.4953,2.4947,2.4913,2.4895,2.4897,2.4893,2.4872,2.4852,2.4853,2.4844,2.4825,2.483,2.4909,2.4921,2.4932,2.4943,2.4823,2.4823,2.4747,2.4746,2.4746]}]]